{"data":{"norad_id":39762,"epoch":"2026-05-25T05:13:27.304032Z","epoch_age_seconds":55454,"freshness":"FRESH","line1":"1 39762U 14028B   26145.21767713  .00000024  00000+0  10465-3 0  9998","line2":"2 39762  82.4477 124.7992 0021523 121.7994 238.5185 12.42893120544660","mean_motion":12.4289312,"eccentricity":0.0021523,"inclination_deg":82.4477,"raan_deg":124.7992,"arg_perigee_deg":121.7994,"mean_anomaly_deg":238.5185,"bstar":0.00010465,"rev_number":54466,"period_min":115.85871518864,"perigee_km":1477.4187049864,"apogee_km":1511.3066671351,"semimajor_km":7872.4996860607,"source":"CELESTRAK","updated_at":"2026-05-25T13:37:55.437999Z"}}